Location: Unspecified
(34.4950°S, 58.5160°W)
Time: 23:43:18
(UTC+00:00)

Cosmos 1680 Rocket - Pass Details

Date: 15 December 2025
Orbit: 755 x 777 km, 74.1° (Epoch: 15 January)

Event Time Altitude Azimuth Distance (km) Brightness Sun altitude
Rises 23:42:41 0° 359° (N) 3,240 6.4 -7.7°
Reaches altitude 10° 23:45:06 10° 4° (N) 2,323 5.6 -8.1°
Maximum altitude 23:50:10 49° 78° (ENE) 1,011 3.8 -9.0°
Drops below altitude 10° 23:55:19 10° 151° (SSE) 2,354 6.1 -9.8°
Sets 23:57:47 0° 156° (SSE) 3,288 7.0 -10.2°
